DW9584 Weather Reports


time (UTC)temp
C
wind
direction
speed
KPH
gust
KPH
rain 1hr
cm
rain 24hr
cm
rain mn
cm
humidity
%
barometer
mb
20260831143033 22 359 0.0 3.2 0.00 0.20 0.03 81 1020.8
20260831141519 22 359 0.0 0.0 0.00 0.20 0.03 82 1020.6
20260831140033 22 359 0.0 0.0 0.00 0.20 0.03 83 1020.8
20260831134534 22 359 0.0 1.6 0.00 0.20 0.03 88 1020.6
20260831133033 21 359 0.0 3.2 0.00 0.20 0.03 90 1020.5
20260831131531 21 359 0.0 1.6 0.00 0.20 0.03 93 1020.7
20260831130030 21 359 0.0 3.2 0.00 0.20 0.03 95 1020.7
20260831124527 20 359 0.0 0.0 0.00 0.20 0.03 96 1020.7
20260831123033 20 359 0.0 0.0 0.00 0.20 0.03 96 1020.6
20260831121533 20 359 0.0 0.0 0.00 0.20 0.03 96 1020.5
20260831120034 20 359 0.0 0.0 0.00 0.20 0.03 96 1020.5
20260831114535 20 359 0.0 0.0 0.00 0.20 0.03 96 1020.4
20260831113033 20 359 0.0 0.0 0.00 0.20 0.03 96 1020.1
20260831111549 20 359 0.0 0.0 0.00 0.20 0.03 96 1020.0
20260831110031 20 359 0.0 0.0 0.00 0.20 0.03 96 1020.0
20260831104511 20 359 0.0 0.0 0.00 0.20 0.03 96 1020.0
20260831103004 20 359 0.0 0.0 0.00 0.20 0.03 96 1019.9
20260831101503 20 359 0.0 0.0 0.00 0.20 0.03 96 1019.8
20260831100023 20 359 0.0 0.0 0.00 0.20 0.03 96 1019.5
20260831094526 20 359 0.0 0.0 0.00 0.20 0.03 96 1019.6
20260831093019 20 359 0.0 0.0 0.00 0.20 0.03 96 1019.1
20260831091518 20 359 0.0 3.2 0.00 0.20 0.03 96 1019.0
20260831090017 20 226 0.0 3.2 0.00 0.20 0.03 96 1018.9
20260831084508 20 226 0.0 0.0 0.00 0.20 0.03 96 1018.7
20260831083005 20 226 0.0 0.0 0.00 0.20 0.03 96 1018.8
20260831081516 20 226 0.0 0.0 0.00 0.20 0.03 96 1018.8
20260831080028 20 226 0.0 0.0 0.00 0.20 0.03 96 1018.9
20260831074537 20 226 0.0 0.0 0.00 0.20 0.03 96 1018.9
20260831073056 20 226 0.0 0.0 0.00 0.20 0.03 96 1019.1
20260831071517 20 226 0.0 0.0 0.00 0.20 0.03 96 1019.1
20260831070021 20 226 0.0 0.0 0.00 0.20 0.03 95 1019.1
20260831064528 20 226 0.0 3.2 0.00 0.20 0.03 95 1019.1
20260831063017 20 226 0.0 0.0 0.00 0.20 0.03 95 1018.9
20260831061537 20 226 0.0 0.0 0.00 0.20 0.03 95 1019.2
20260831060027 20 226 0.0 0.0 0.00 0.20 0.03 95 1019.4
20260831054529 20 226 0.0 0.0 0.00 0.20 0.03 95 1019.5
20260831053032 20 226 0.0 0.0 0.00 0.20 0.03 95 1019.5
20260831051527 20 226 0.0 0.0 0.03 0.20 0.03 95 1019.4
20260831050036 20 226 0.0 0.0 0.03 0.20 0.03 95 1019.3
20260831044516 20 226 0.0 0.0 0.03 0.20 0.03 95 1019.6
20260831043015 20 226 0.0 0.0 0.03 0.20 0.03 94 1019.4
20260831041543 21 226 0.0 0.0 0.03 0.18 0.00 94 1019.3
20260831040047 21 184 0.0 0.0 0.08 0.18 0.00 94 1019.5
20260831034508 21 184 0.0 1.6 0.08 0.18 0.18 93 1019.3
20260831033012 21 283 0.0 3.2 0.13 0.18 0.18 93 1019.4
20260831031507 22 334 1.6 8.0 0.15 0.15 0.15 94 1019.5
20260831030021 23 229 0.0 0.0 0.10 0.10 0.10 94 1019.4
20260831024509 23 229 0.0 0.0 0.10 0.10 0.10 94 1019.2
20260831023012 23 229 0.0 3.2 0.05 0.05 0.05 94 1019.2
20260831021511 23 229 0.0 0.0 0.00 0.00 0.00 93 1019.4
20260831020008 23 229 0.0 0.0 0.00 0.00 0.00 93 1019.2
20260831014512 23 229 0.0 0.0 0.00 0.00 0.00 92 1019.3
20260831013011 23 229 0.0 0.0 0.00 0.00 0.00 91 1019.5
20260831011517 23 229 0.0 0.0 0.00 0.00 0.00 90 1019.5
20260831010015 24 229 0.0 0.0 0.00 0.00 0.00 88 1019.5
20260831004518 24 229 0.0 3.2 0.00 0.00 0.00 87 1019.2
20260831003019 24 229 0.0 0.0 0.00 0.00 0.00 87 1018.8
20260831001513 24 229 0.0 0.0 0.00 0.00 0.00 86 1018.7
20260831000018 24 229 0.0 0.0 0.00 0.00 0.00 86 1018.6
20260830234521 24 229 0.0 0.0 0.00 0.00 0.00 84 1018.7
20260830233026 25 229 0.0 0.0 0.00 0.00 0.00 83 1018.8
20260830231516 25 229 0.0 0.0 0.00 0.00 0.00 81 1018.8
20260830230023 26 229 0.0 3.2 0.00 0.00 0.00 79 1018.8
20260830224518 26 195 0.0 3.2 0.00 0.00 0.00 76 1018.7
20260830223018 27 248 0.0 4.8 0.00 0.00 0.00 74 1018.8
20260830221515 27 207 0.0 4.8 0.00 0.00 0.00 75 1018.8
20260830220039 27 206 0.0 3.2 0.00 0.00 0.00 74 1018.6
20260830214521 26 243 1.6 4.8 0.00 0.00 0.00 74 1018.7
20260830213026 27 314 0.0 4.8 0.00 0.00 0.00 74 1018.6
20260830211509 27 114 0.0 8.0 0.00 0.00 0.00 75 1018.6
20260830210017 27 243 1.6 11.3 0.00 0.00 0.00 72 1018.5
20260830204522 27 307 0.0 4.8 0.00 0.00 0.00 73 1018.6
20260830203027 27 250 0.0 4.8 0.00 0.00 0.00 73 1018.7
20260830201524 27 234 1.6 9.7 0.00 0.00 0.00 72 1018.7
20260830200031 27 245 0.0 6.4 0.00 0.00 0.00 72 1019.0
20260830194513 27 134 1.6 6.4 0.00 0.00 0.00 72 1019.1
20260830193013 27 223 0.0 8.0 0.00 0.00 0.00 71 1019.5
20260830191535 27 245 1.6 4.8 0.00 0.00 0.00 70 1019.5
20260830190006 27 349 1.6 4.8 0.00 0.00 0.00 72 1019.6
20260830184527 27 242 0.0 6.4 0.00 0.00 0.00 72 1019.8
20260830183028 27 237 0.0 4.8 0.00 0.00 0.00 72 1020.2
20260830181527 27 295 0.0 3.2 0.00 0.00 0.00 1020.2
20260830180033 27 167 1.6 3.2 0.00 0.00 0.00 73 1020.3
20260830174516 26 196 1.6 6.4 0.00 0.00 0.00 72 1020.5
20260830173015 26 68 1.6 8.0 0.00 0.00 0.00 74 1020.8
20260830171511 26 134 1.6 6.4 0.00 0.00 0.00 72 1021.0
20260830170010 27 359 0.0 6.4 0.00 0.00 0.00 72 1021.1
20260830164530 26 282 0.0 8.0 0.00 0.00 0.00 73 1021.2
20260830163038 26 294 0.0 4.8 0.00 0.00 0.00 76 1021.4
20260830161527 25 172 0.0 3.2 0.00 0.00 0.00 79 1021.7
20260830160035 25 175 1.6 8.0 0.00 0.00 0.00 77 1021.8
20260830154525 25 307 1.6 6.4 0.00 0.00 0.00 77 1021.7
20260830153020 25 208 1.6 8.0 0.00 0.00 0.00 78 1021.7
20260830151514 23 44 0.0 3.2 0.00 0.00 0.00 85 1021.9
20260830150040 23 158 3.2 8.0 0.00 0.00 0.00 84 1022.1
20260830144532 23 352 0.0 4.8 0.00 0.00 0.00 84 1021.9